Regional Weather Roundup
Issued by NWS

Home | Current Version | Previous Version | Graphics & Text | Print | Product List | Glossary On
Versions: 1 2 3 4 5 6 7 8 9 10 11 12 13 14 15 16 17 18 19 20 21 22 23 24 25 26 27 28 29 30 31 32 33 34 35 36 37 38 39 40 41 42 43 44 45 46 47 48 49 50
550
ASUS45 KSLC 200210
RWRUT

UTAH REGIONAL WEATHER ROUNDUP
NATIONAL WEATHER SERVICE SALT LAKE CITY UT
800 PM MDT THU OCT 19 2017

UTZ001>011-023>025-200300-

NORTHERN UTAH

CITY           SKY/WX    TMP DP  RH WIND       PRES   REMARKS
BRIGHAM CITY   PTCLDY    57  29  34 CALM      29.81S
HILL AFB       CLOUDY    61  33  35 SE7       29.83F
LOGAN          PTCLDY    60  24  25 SE3       29.81F
OGDEN          PTCLDY    60  35  39 S8        29.81F
SALT LAKE CITY MOCLDY    61  35  37 SE5       29.82S
TOOELE VALLEY  MOCLDY    55  32  41 SW5       29.82F
WENDOVER       CLEAR     54  22  28 W3        29.79F
WEST JORDAN    MOCLDY    61  32  33 CALM      29.85S

$$

UTZ011>015-024>027-200300-

CENTRAL/NORTHEAST UTAH

CITY           SKY/WX    TMP DP  RH WIND       PRES   REMARKS
PROVO AIRPORT  CLOUDY    68  38  33 S9        29.86S
MOAB/CANYONLAN CLEAR     64  26  23 SW3       29.88R
DELTA          MOCLDY    64  34  32 SE8       29.85S
PRICE          MOCLDY    61  28  28 E7        29.95S
RICHFIELD      PTCLDY    61  37  41 CALM      29.93R
ROOSEVELT      CLEAR     46  27  46 W5        29.94S
VERNAL         CLEAR     54  25  32 NW7       29.92S

$$

UTZ013>016-019>022-027-200300-

SOUTHERN UTAH

CITY           SKY/WX    TMP DP  RH WIND       PRES   REMARKS
BRYCE CANYON   CLOUDY    55  31  39 SE8       30.07R
CEDAR CITY     CLEAR     62  31  31 S10       29.93R
MILFORD        MOCLDY    61  35  37 S9        29.88R
ST GEORGE      CLOUDY    72  31  22 CALM      29.80R
HANKSVILLE     PTCLDY    70  30  23 S6        29.90R
KANAB          PTCLDY    66  30  26 W7        29.95R
BLANDING         N/A     56  28  33 CALM      30.09R

$$

REGIONAL REPORTS     COLORADO/ARIZONA

CITY           SKY/WX    TMP DP  RH WIND       PRES   REMARKS
CRAIG, CO      CLOUDY    56  31  38 SW7       29.98S
GRAND JUNCTION CLOUDY    62  24  23 E5        29.92F
RIFLE, CO      CLOUDY    63  31  30 SW5       29.97R
MONTROSE, CO   CLOUDY    57  27  31 S5        30.02R
CORTEZ, CO     CLEAR     51  33  50 NE7       30.03S
COLORADO CITY    N/A     64  32  29 NW3       29.95R
PAGE, AZ       CLOUDY    73  35  25 W5        29.88R
GRAND CANYON   CLOUDY    55  30  38 CALM      30.04R
KINGMAN, AZ    CLEAR     68  34  28 S9        29.86R
FLAGSTAFF, AZ  CLEAR     57  28  33 SW3       30.09R

$$

REGIONAL REPORTS    NEVADA/IDAHO/WYOMING

CITY           SKY/WX    TMP DP  RH WIND       PRES   REMARKS
LAS VEGAS, NV  CLEAR     82  27  13 SW9       29.73R
ELY, NY        CLEAR     50  23  34 S12       29.90S
ELKO, NV       CLEAR     53  16  23 SW3       29.77F
POCATELLO, ID  CLEAR     62  19  19 S17       29.76S
BURLEY, ID     CLEAR     63  19  18 S16       29.68F
FORT BRIDGER,    N/A     51  15  23 S9        29.98F
EVANSTON, WY   CLOUDY    55  28  35 S5        29.97R
ROCK SPRINGS,  CLEAR     55  22  27 SW13      29.95S
KEMMERER, WY   CLOUDY    54   9  16 CALM      29.97S

$$




USA.gov is the U.S. government's official web portal to all federal, state and local government web resources and services.